Total_Precipitation_Accumulation
0.59 0.57 0.52 0.45 0.39 0.29 0.24 0.24 0.29 0.30 0.29 0.18 0.07 0.02 0.01 0.00 0.00 0.00 0.00 0.00 0.00 0.00 0.01 0.01 0.00 0.00 0.00 0.00 0.00 0.01 0.01 0.01 0.02 0.04 0.09 0.16 0.22 0.24
0.65 0.68 0.67 0.62 0.59 0.49 0.36 0.27 0.23 0.29 0.33 0.26 0.12 0.03 0.03 0.02 0.01 0.00 0.00 0.00 0.00 0.00 0.00 0.01 0.01 0.00 0.00 0.00 0.00 0.00 0.00 0.00 0.01 0.03 0.15 0.37 0.45 0.41
0.63 0.68 0.74 0.70 0.73 0.67 0.57 0.45 0.33 0.31 0.37 0.27 0.11 0.04 0.03 0.02 0.01 0.00 0.00 0.00 0.00 0.00 0.00 0.01 0.01 0.01 0.00 0.00 0.00 0.00 0.00 0.00 0.01 0.03 0.08 0.23 0.52 0.60
0.59 0.58 0.63 0.63 0.68 0.69 0.67 0.61 0.52 0.39 0.37 0.35 0.16 0.07 0.04 0.02 0.01 0.01 0.00 0.00 0.00 0.00 0.00 0.00 0.01 0.01 0.00 0.00 0.00 0.00 0.00 0.00 0.00 0.01 0.03 0.06 0.13 0.26
0.45 0.45 0.46 0.49 0.54 0.62 0.65 0.60 0.55 0.47 0.39 0.39 0.25 0.11 0.06 0.03 0.01 0.01 0.01 0.00 0.00 0.00 0.00 0.00 0.00 0.00 0.00 0.00 0.00 0.00 0.00 0.00 0.00 0.00 0.01 0.02 0.02 0.04
0.29 0.28 0.29 0.30 0.34 0.42 0.51 0.55 0.55 0.51 0.46 0.44 0.33 0.15 0.10 0.06 0.02 0.01 0.00 0.00 0.00 0.00 0.00 0.00 0.00 0.00 0.00 0.00 0.00 0.00 0.00 0.00 0.00 0.00 0.00 0.00 0.00 0.00
0.18 0.14 0.14 0.19 0.22 0.25 0.29 0.38 0.50 0.53 0.48 0.46 0.39 0.24 0.11 0.07 0.04 0.02 0.01 0.00 0.00 0.00 0.00 0.00 0.00 0.00 0.00 0.00 0.00 0.00 0.00 0.00 0.00 0.00 0.00 0.00 0.00 0.00
0.09 0.09 0.11 0.16 0.18 0.15 0.15 0.21 0.32 0.39 0.42 0.42 0.41 0.32 0.19 0.11 0.08 0.05 0.02 0.01 0.00 0.00 0.00 0.00 0.00 0.00 0.00 0.00 0.00 0.00 0.00 0.00 0.00 0.00 0.00 0.00 0.00 0.00
0.11 0.12 0.14 0.14 0.18 0.14 0.12 0.13 0.15 0.17 0.26 0.38 0.40 0.36 0.39 0.27 0.15 0.07 0.03 0.02 0.01 0.00 0.00 0.00 0.00 0.00 0.00 0.00 0.00 0.00 0.00 0.00 0.00 0.00 0.00 0.00 0.00 0.00
0.14 0.14 0.16 0.14 0.12 0.16 0.20 0.23 0.22 0.19 0.24 0.18 0.23 0.43 0.45 0.35 0.22 0.15 0.11 0.08 0.05 0.01 0.00 0.00 0.00 0.00 0.00 0.00 0.00 0.00 0.00 0.00 0.00 0.00 0.00 0.00 0.00 0.00
0.13 0.13 0.14 0.12 0.14 0.19 0.30 0.40 0.38 0.34 0.45 0.44 0.39 0.37 0.36 0.31 0.27 0.24 0.19 0.13 0.07 0.02 0.01 0.00 0.00 0.00 0.00 0.00 0.00 0.00 0.00 0.00 0.00 0.00 0.00 0.00 0.00 0.00
0.15 0.20 0.24 0.20 0.21 0.19 0.21 0.32 0.34 0.33 0.33 0.35 0.31 0.24 0.17 0.15 0.17 0.16 0.18 0.18 0.14 0.07 0.03 0.02 0.00 0.00 0.00 0.00 0.00 0.00 0.00 0.00 0.00 0.00 0.00 0.00 0.00 0.00
0.24 0.31 0.31 0.28 0.19 0.15 0.16 0.21 0.23 0.28 0.32 0.34 0.35 0.28 0.17 0.12 0.11 0.11 0.11 0.13 0.17 0.16 0.08 0.05 0.02 0.01 0.00 0.00 0.00 0.00 0.00 0.00 0.00 0.00 0.00 0.00 0.00 0.00
0.26 0.26 0.24 0.24 0.16 0.12 0.10 0.13 0.12 0.12 0.18 0.27 0.29 0.27 0.25 0.24 0.22 0.18 0.15 0.13 0.12 0.16 0.13 0.09 0.06 0.03 0.01 0.01 0.00 0.00 0.00 0.00 0.00 0.00 0.00 0.00 0.00 0.00
0.18 0.17 0.16 0.11 0.08 0.07 0.07 0.08 0.07 0.09 0.14 0.18 0.22 0.25 0.28 0.31 0.31 0.30 0.25 0.19 0.15 0.14 0.12 0.13 0.12 0.11 0.07 0.05 0.03 0.02 0.01 0.00 0.00 0.00 0.00 0.00 0.00 0.00
0.11 0.06 0.05 0.03 0.05 0.07 0.07 0.05 0.07 0.12 0.16 0.18 0.21 0.25 0.29 0.30 0.30 0.31 0.33 0.32 0.29 0.27 0.24 0.22 0.21 0.20 0.20 0.17 0.12 0.07 0.05 0.03 0.01 0.01 0.00 0.00 0.00 0.00
0.25 0.15 0.10 0.08 0.07 0.09 0.10 0.08 0.08 0.10 0.12 0.14 0.15 0.17 0.20 0.26 0.29 0.29 0.27 0.29 0.29 0.28 0.30 0.32 0.32 0.31 0.29 0.28 0.27 0.22 0.15 0.10 0.06 0.04 0.03 0.02 0.01 0.00
0.27 0.33 0.33 0.34 0.32 0.29 0.25 0.18 0.15 0.14 0.14 0.16 0.17 0.18 0.19 0.21 0.27 0.29 0.27 0.26 0.24 0.23 0.22 0.24 0.27 0.30 0.31 0.27 0.22 0.21 0.22 0.20 0.17 0.14 0.10 0.06 0.03 0.02
0.28 0.40 0.39 0.35 0.30 0.26 0.23 0.21 0.18 0.14 0.12 0.14 0.23 0.28 0.27 0.28 0.30 0.33 0.31 0.27 0.25 0.25 0.24 0.21 0.19 0.20 0.22 0.21 0.20 0.20 0.19 0.18 0.17 0.15 0.13 0.10 0.07 0.05
0.27 0.32 0.29 0.24 0.17 0.11 0.07 0.06 0.07 0.06 0.05 0.06 0.09 0.17 0.28 0.35 0.41 0.43 0.46 0.48 0.45 0.40 0.34 0.28 0.21 0.16 0.15 0.14 0.12 0.10 0.11 0.13 0.14 0.12 0.10 0.09 0.08 0.07
0.12 0.11 0.11 0.09 0.06 0.05 0.04 0.03 0.02 0.03 0.03 0.03 0.04 0.06 0.12 0.23 0.36 0.45 0.49 0.53 0.51 0.50 0.47 0.42 0.38 0.37 0.29 0.24 0.19 0.12 0.08 0.09 0.08 0.07 0.06 0.07 0.08 0.07
0.05 0.05 0.05 0.04 0.04 0.03 0.03 0.03 0.03 0.03 0.03 0.05 0.08 0.11 0.16 0.18 0.21 0.29 0.39 0.42 0.40 0.38 0.39 0.40 0.41 0.41 0.36 0.32 0.26 0.20 0.16 0.13 0.13 0.14 0.11 0.09 0.07 0.06
0.05 0.05 0.04 0.03 0.02 0.03 0.04 0.03 0.03 0.03 0.03 0.03 0.06 0.11 0.17 0.22 0.23 0.22 0.23 0.27 0.30 0.34 0.35 0.35 0.35 0.34 0.34 0.34 0.33 0.30 0.24 0.19 0.18 0.19 0.21 0.26 0.22 0.12